Vorticity
nan nan nan nan nan nan nan nan nan nan nan nan nan nan nan nan nan nan nan nan nan nan nan nan nan nan nan nan nan nan nan nan nan nan nan nan nan nan nan nan nan nan nan nan nan nan nan nan nan nan nan nan nan nan nan nan nan nan nan nan nan nan nan nan nan nan nan nan nan nan nan nan nan nan nan nan nan nan nan nan nan nan nan nan nan nan
nan 8 10 11 9 6 9 12 9 7 6 6 7 9 9 7 5 6 7 8 8 8 8 8 8 7 8 9 10 9 10 10 10 11 13 15 14 13 12 10 9 7 6 6 5 5 5 5 5 5 6 7 8 8 8 9 9 11 12 14 17 19 22 23 24 25 25 24 22 20 16 13 11 12 12 12 11 10 8 7 6 6 5 5 5 nan
nan 8 9 10 9 6 8 11 10 10 8 7 8 10 10 8 6 7 8 9 9 9 9 9 9 9 9 10 12 12 10 10 10 11 13 15 14 13 11 9 7 6 5 5 5 5 4 4 4 4 5 5 6 6 6 6 6 6 7 10 14 18 21 24 26 27 28 26 23 19 15 13 11 11 11 10 8 7 6 5 5 5 5 5 5 nan
nan 9 9 9 9 8 8 9 10 11 10 9 9 11 10 8 8 9 10 10 9 9 10 10 10 9 10 12 14 15 12 11 11 11 13 15 14 13 10 8 7 6 5 4 4 5 5 4 4 4 4 4 5 5 5 5 5 6 6 8 11 14 16 17 19 19 19 19 16 13 11 10 9 8 8 6 5 5 4 4 4 5 5 5 5 nan
nan 10 10 9 9 10 10 9 10 11 11 10 9 10 9 9 9 10 11 11 10 9 9 10 10 9 9 11 14 15 14 12 12 13 15 16 15 13 10 8 6 5 4 5 5 5 5 5 5 4 4 4 4 5 5 6 7 8 9 11 13 15 15 14 13 11 10 10 9 8 7 7 6 6 5 5 4 4 4 4 5 5 5 5 5 nan
nan 11 11 9 9 10 12 10 10 10 10 9 9 9 9 10 10 10 10 11 11 10 9 10 10 10 9 10 12 14 14 13 13 13 16 17 16 13 10 8 7 6 5 6 6 7 6 6 6 5 5 5 5 6 6 7 8 10 12 14 16 19 19 17 13 10 8 7 7 6 6 6 5 5 5 5 5 4 4 4 5 5 5 5 6 nan
nan 12 11 10 9 10 11 10 9 9 8 8 7 7 7 8 10 10 10 10 11 10 10 9 9 10 10 11 12 14 15 15 15 15 17 19 17 14 11 8 8 7 6 7 8 8 8 7 7 6 6 7 7 7 8 9 10 11 13 15 17 20 21 19 15 12 10 9 7 7 7 7 7 7 7 7 7 6 6 6 6 6 5 5 5 nan
nan 10 11 10 9 9 9 10 10 9 8 8 7 6 5 6 8 8 8 9 10 11 10 9 9 9 10 11 12 13 13 14 15 16 18 21 22 20 15 12 10 8 7 8 8 9 9 8 8 8 8 9 9 9 9 10 11 11 12 13 15 16 17 16 15 13 11 10 9 9 9 9 9 9 10 10 10 9 9 8 7 6 6 5 5 nan
nan 8 10 11 10 8 7 9 10 10 9 8 8 8 7 5 6 6 6 7 9 11 11 9 8 8 10 11 12 12 11 10 10 10 11 15 19 22 21 19 16 12 10 8 9 10 9 9 9 9 10 11 11 10 10 10 11 11 11 12 11 12 12 12 12 11 11 10 10 10 9 9 9 9 9 9 10 11 11 10 9 8 7 6 6 nan
nan 8 9 10 10 10 10 11 11 12 11 9 9 9 10 8 7 7 6 7 8 9 10 10 9 8 9 11 11 11 12 12 11 10 8 8 11 15 20 21 20 21 17 11 11 11 11 11 11 11 11 11 11 10 10 10 11 11 11 10 9 9 8 8 8 8 9 9 9 8 8 7 7 6 6 6 7 7 9 10 10 9 8 7 7 nan
nan 10 9 9 9 11 12 12 12 13 14 12 9 8 10 11 10 9 8 8 8 8 9 10 10 9 8 9 10 11 11 12 15 17 17 15 15 16 18 19 20 24 21 15 14 14 13 12 12 12 11 11 10 9 8 9 10 11 10 9 8 7 7 6 6 6 6 6 6 6 6 5 5 4 4 3 3 4 5 7 8 9 9 8 8 nan
nan 11 10 9 8 9 10 10 11 13 15 13 10 9 9 11 12 11 9 9 9 8 9 10 10 10 10 9 10 10 10 10 12 15 19 21 21 20 19 20 21 23 22 19 18 17 16 14 12 11 11 11 10 8 8 9 11 11 9 8 7 6 5 5 4 4 4 4 5 5 4 4 4 4 3 2 2 2 2 3 5 7 8 8 8 nan
nan 10 10 8 7 7 7 7 8 10 11 11 9 9 9 12 13 12 10 9 11 13 13 11 10 10 10 9 9 10 10 9 10 12 14 16 18 17 17 17 18 19 19 18 20 24 23 15 10 9 10 10 10 9 8 10 10 10 8 7 6 5 5 4 4 4 4 4 4 4 4 4 4 4 4 3 3 3 3 3 3 4 6 8 8 nan
nan 10 9 8 7 7 8 7 7 7 7 7 8 9 11 12 13 12 10 8 10 13 15 13 10 10 10 9 10 11 10 9 10 11 11 13 14 14 14 13 13 14 14 14 17 22 22 13 9 12 12 9 8 8 8 9 9 8 7 6 6 5 4 4 4 4 4 4 4 4 4 4 4 4 5 5 5 5 5 4 4 4 5 7 8 nan
nan 10 8 8 7 7 8 9 8 7 7 7 8 8 9 10 11 10 9 7 8 10 12 12 10 10 11 11 11 12 12 10 9 10 9 8 10 13 15 14 11 12 12 12 13 17 14 8 9 13 15 12 9 9 9 9 10 8 6 5 5 5 4 4 4 4 5 5 5 5 5 5 5 6 6 6 6 7 6 6 6 6 6 7 8 nan
nan 10 9 7 6 7 8 9 9 9 9 10 11 10 8 7 8 9 9 10 9 8 8 9 9 10 11 12 12 12 12 11 10 10 9 5 4 7 17 18 11 10 10 11 11 12 10 9 11 14 17 19 15 12 9 9 9 7 5 5 5 5 5 5 5 5 5 6 6 6 6 6 7 7 7 8 8 8 8 8 8 8 8 8 9 nan
nan 9 10 8 7 7 9 9 10 10 11 11 11 11 10 8 8 9 10 10 8 7 6 8 8 8 10 12 13 14 13 10 10 10 11 6 2 2 15 22 14 9 9 10 10 10 10 10 11 13 21 24 17 11 8 8 8 6 5 5 5 5 5 6 6 6 7 7 7 7 8 8 8 8 8 9 9 9 9 10 10 10 10 10 10 nan
nan 9 9 9 9 8 9 10 11 11 11 11 11 10 10 10 10 10 10 9 7 5 6 7 7 7 8 10 13 16 14 10 9 9 10 7 3 2 12 21 18 13 9 8 9 10 11 11 12 16 26 27 15 9 8 7 7 6 6 6 6 6 7 7 7 8 8 8 8 9 9 9 9 9 9 9 9 10 10 10 11 11 11 10 11 nan
nan 9 8 9 9 9 9 9 10 10 10 11 11 11 10 11 10 9 9 8 8 7 8 6 6 6 7 8 11 16 15 11 9 9 8 7 4 3 10 18 19 14 10 8 7 9 11 15 20 24 26 20 12 8 7 7 7 6 6 7 7 7 8 8 8 9 9 9 9 9 9 9 9 9 9 9 9 10 10 11 11 11 11 11 12 nan
nan 8 6 8 10 11 11 11 10 9 9 10 10 10 10 11 11 9 9 9 9 9 9 8 7 7 8 10 12 16 14 12 10 10 9 8 5 3 9 17 17 13 8 6 7 10 12 15 20 25 22 15 11 8 7 7 7 7 7 7 8 8 9 9 9 9 9 9 9 9 9 9 9 9 9 9 10 10 11 11 12 12 12 12 12 nan
nan 11 8 6 7 10 11 12 12 11 10 9 8 8 10 11 11 9 10 10 10 9 8 9 10 10 10 12 14 17 14 10 7 6 8 8 6 5 10 15 16 13 7 4 6 10 13 12 14 21 25 20 13 9 7 7 7 7 7 8 8 8 8 9 8 9 8 8 8 8 8 9 8 9 9 9 10 10 11 12 12 12 12 13 13 nan
nan 12 13 9 6 6 9 12 14 14 12 7 5 6 11 12 11 10 11 11 10 11 10 10 11 13 13 13 14 17 14 8 6 4 6 9 7 6 9 14 16 14 8 4 6 10 12 12 14 23 28 23 13 9 8 8 8 8 7 8 8 8 8 8 8 8 8 8 8 8 8 8 8 8 8 9 9 10 11 12 12 13 13 13 12 nan
nan 8 14 14 10 7 9 11 14 15 13 8 5 4 9 13 11 10 12 11 10 11 12 12 11 11 12 14 15 17 13 9 8 6 7 9 8 7 8 13 14 14 9 6 8 10 12 12 15 22 30 25 12 8 8 8 8 8 7 7 7 7 7 7 8 8 8 8 8 8 8 8 8 8 8 8 9 9 10 11 12 13 13 12 11 nan
nan 8 11 13 11 9 10 10 10 11 11 10 9 9 9 10 10 10 12 12 10 11 11 9 7 7 10 14 15 15 13 10 9 8 8 9 9 10 11 12 12 10 9 8 11 11 11 10 13 17 29 29 15 9 7 8 8 7 7 7 7 7 7 7 7 7 8 8 8 8 8 8 8 8 8 8 8 8 9 10 11 12 12 12 11 nan
nan 6 7 9 9 6 4 5 5 6 6 8 10 11 11 11 10 10 10 11 11 10 9 6 5 4 8 11 11 12 13 11 10 8 8 10 11 12 12 13 11 8 7 8 12 12 11 10 11 13 22 28 22 13 7 7 7 7 7 7 7 7 7 7 7 7 8 8 8 8 8 8 8 7 7 7 8 8 8 8 9 10 11 11 10 nan
nan -1 -0 2 5 6 4 3 3 3 -1 -2 3 7 10 11 9 9 9 11 11 10 8 6 6 4 6 8 10 11 13 12 11 9 9 11 11 11 12 12 10 10 8 9 12 13 11 9 10 11 17 24 25 18 10 8 7 7 7 7 7 7 7 7 7 7 8 8 8 8 8 8 8 7 7 7 7 7 7 7 8 9 9 9 10 nan
nan -4 -3 -0 3 7 8 7 6 4 -1 -6 -5 -2 3 6 7 8 8 9 10 9 6 6 7 7 7 7 9 11 12 11 10 9 11 11 10 10 12 12 10 10 8 10 13 14 12 9 9 10 12 16 22 25 19 9 7 7 7 7 7 7 7 7 7 7 8 8 8 8 8 8 8 7 7 7 7 7 7 7 7 6 6 6 9 nan
nan 2 2 3 5 8 11 11 9 7 3 0 -2 -7 -8 -1 5 7 8 10 11 10 7 6 6 8 8 9 9 11 12 11 10 9 11 10 9 11 13 11 10 9 7 8 11 12 10 8 9 9 11 14 19 26 25 15 9 8 8 7 7 7 7 7 7 7 8 8 8 8 8 8 8 8 7 8 8 8 7 7 5 1 1 3 7 nan
nan 14 12 10 10 12 14 16 16 16 12 7 2 -7 -11 -3 5 6 9 12 12 10 8 7 6 7 9 12 11 11 11 12 11 10 8 7 8 12 14 12 9 8 6 5 6 6 6 8 9 10 13 15 16 20 24 20 11 11 14 12 8 7 7 7 7 8 8 8 9 9 9 9 8 8 8 8 9 9 8 7 3 -2 -1 5 7 nan
nan 22 21 20 19 18 18 20 23 26 24 16 7 -4 -9 -2 5 8 11 12 11 10 9 8 7 6 8 10 10 10 12 14 13 11 8 5 6 11 14 12 10 7 4 3 4 6 7 8 8 9 13 14 13 13 17 18 14 14 19 19 15 13 11 9 8 8 8 8 9 9 9 9 9 9 9 9 9 9 8 5 0 -1 2 7 7 nan
nan 20 20 22 22 20 18 18 21 25 28 24 15 4 -2 1 6 9 11 12 11 10 9 8 8 7 5 5 6 7 12 18 17 13 7 4 7 13 13 11 9 8 5 4 5 6 9 8 8 8 10 12 11 11 12 14 14 14 17 19 19 23 19 12 9 9 10 10 9 9 9 9 9 9 9 9 9 8 6 2 -1 0 5 8 8 nan
nan 15 16 17 18 16 15 14 14 16 20 20 17 13 8 7 7 9 10 11 11 11 10 9 9 8 5 3 4 4 11 19 21 15 4 2 6 14 14 11 9 8 6 7 9 10 11 10 10 8 8 9 9 10 10 11 13 15 16 15 17 26 25 14 10 9 12 14 12 11 10 10 10 10 9 9 9 8 6 1 -2 -1 5 8 8 nan
nan 11 13 14 13 13 11 11 10 10 11 12 13 13 13 12 10 7 7 10 11 11 10 9 8 8 7 5 4 4 10 20 24 19 3 -4 4 12 15 12 10 9 5 5 10 14 15 14 13 11 9 9 9 9 9 9 11 14 15 13 13 21 22 15 11 10 13 16 16 17 14 12 11 10 10 9 8 7 6 3 0 -1 3 6 8 nan
nan 11 10 11 11 11 11 10 10 9 9 10 11 10 11 12 13 10 8 9 11 11 10 9 8 8 8 7 6 5 10 21 27 20 2 -6 2 11 15 12 11 9 5 2 6 10 15 17 14 11 11 11 8 8 8 8 9 11 14 15 13 14 16 14 12 12 13 12 14 19 19 18 19 15 12 11 9 8 6 3 2 2 1 3 6 nan
nan 13 11 11 11 11 12 12 11 10 10 11 11 11 10 11 13 13 12 11 11 11 10 10 9 9 8 7 7 5 10 22 26 18 2 -5 1 9 14 13 11 10 7 3 3 5 12 16 15 10 10 9 8 7 6 7 8 9 14 16 14 12 13 13 13 12 11 10 10 13 16 19 22 20 18 16 13 11 8 5 3 3 2 2 2 nan
nan 14 13 12 12 12 13 13 12 12 11 11 12 12 11 11 12 13 13 13 13 12 11 9 10 11 11 10 8 8 12 21 24 17 3 -3 1 6 10 14 13 11 8 5 4 4 9 14 15 12 8 6 6 7 6 6 8 10 13 13 12 10 11 12 13 13 11 10 10 10 13 15 17 18 23 24 17 12 10 7 5 4 3 3 1 nan
nan 13 13 12 11 12 12 12 12 12 11 11 12 12 11 11 11 12 13 13 13 13 12 10 10 12 12 12 14 15 18 21 21 17 6 -1 1 4 8 14 16 12 7 7 6 6 8 11 12 11 7 6 6 9 9 7 7 9 10 10 10 9 9 12 14 13 12 10 9 10 12 13 14 16 22 23 16 13 12 9 7 6 6 5 4 nan
nan 12 12 11 10 10 11 11 12 12 11 10 12 13 13 12 12 11 14 16 14 12 10 10 12 16 15 14 17 20 24 23 19 16 7 -0 1 3 8 13 16 12 9 9 8 7 7 8 9 8 6 7 8 12 13 10 9 8 8 8 8 8 9 12 14 13 11 10 10 11 11 11 11 13 15 16 13 12 14 16 17 14 10 8 9 nan
nan 13 13 11 10 10 10 10 10 12 14 13 12 13 14 14 14 13 15 18 18 17 15 12 13 15 17 17 18 20 21 19 15 13 7 2 1 4 8 12 14 13 10 10 10 9 7 6 7 7 7 8 10 11 12 12 11 9 7 6 7 8 9 12 14 14 11 10 10 9 8 9 10 10 11 12 12 12 11 15 18 15 11 13 18 nan
nan 15 15 13 9 9 9 9 10 12 14 15 15 13 11 11 12 12 13 16 17 18 17 15 12 12 15 17 18 19 16 14 15 10 7 5 5 6 8 10 12 13 11 10 12 12 8 6 9 11 10 9 11 12 12 12 13 13 7 2 7 10 11 11 13 14 12 10 9 8 8 10 11 10 10 10 10 10 9 10 11 12 11 13 17 nan
nan 13 14 14 12 12 12 13 13 13 13 13 12 10 9 9 9 8 7 9 11 12 11 8 7 7 8 12 16 21 22 19 15 9 8 11 10 6 6 9 11 13 12 10 11 12 10 8 9 10 10 12 13 13 12 15 16 13 3 0 6 12 14 10 10 12 12 11 10 10 10 10 10 9 8 8 8 9 10 10 10 9 9 11 13 nan
nan 13 11 11 13 14 16 17 17 15 12 11 10 9 9 8 7 6 5 6 7 9 9 6 5 4 3 4 7 11 18 23 23 19 14 12 10 7 6 9 11 13 13 12 11 12 12 10 9 9 11 11 10 9 13 18 17 13 5 4 8 8 8 8 9 13 13 10 10 12 10 8 9 9 9 7 7 9 12 13 13 10 6 8 10 nan
nan 16 13 12 12 15 17 14 12 11 11 10 10 10 10 10 9 8 6 6 8 9 9 8 7 5 3 2 3 4 7 16 25 29 24 15 12 9 9 10 10 11 11 10 10 11 12 11 10 11 13 12 10 11 13 13 13 13 12 10 6 1 3 10 12 14 13 12 9 9 8 9 10 11 10 9 8 10 12 15 13 8 6 8 9 nan
nan 15 14 13 13 13 12 11 11 12 11 10 10 9 11 12 11 8 6 8 10 9 8 9 9 8 6 5 4 3 6 10 17 26 31 24 15 11 13 14 11 10 9 8 8 9 10 11 11 13 14 13 12 12 12 12 11 10 13 13 9 4 6 13 15 11 10 12 10 9 10 10 10 10 9 8 8 9 10 10 9 8 9 11 12 nan
nan 14 16 16 14 12 11 11 10 11 11 10 10 10 12 12 11 8 8 10 11 10 9 9 8 8 8 7 5 5 7 9 11 15 23 26 19 13 12 14 13 13 10 8 8 9 9 9 11 12 14 14 14 14 12 11 11 11 12 10 7 4 10 19 18 11 9 11 10 11 11 11 9 8 8 7 7 7 9 10 9 8 7 9 11 nan
nan 17 18 16 15 14 12 9 8 9 10 10 10 10 12 12 11 11 11 10 10 10 10 9 7 7 8 8 8 7 8 8 8 8 12 15 15 15 15 15 15 15 14 13 13 13 12 12 13 11 9 11 13 14 14 12 11 11 12 9 6 4 9 15 15 13 11 9 10 12 12 10 8 8 8 7 5 5 7 9 10 9 8 8 10 nan
nan 17 16 13 12 12 12 11 10 9 10 9 9 10 11 12 12 12 12 11 10 11 11 9 9 10 10 9 9 10 9 8 7 7 8 10 11 12 13 13 14 15 17 18 18 17 17 18 16 12 8 7 9 12 14 14 13 12 11 10 7 5 7 11 13 12 11 10 12 13 11 8 7 8 8 6 5 5 6 7 9 10 11 10 10 nan
nan 17 14 11 11 11 11 11 10 11 9 8 10 11 13 13 12 8 10 13 11 11 10 9 10 10 12 12 12 12 11 8 7 7 7 8 8 9 9 9 9 10 13 15 15 16 17 18 18 17 12 8 9 12 14 13 13 12 12 11 8 7 8 11 12 12 11 13 15 13 8 6 7 9 9 7 6 5 7 7 7 8 10 12 11 nan
nan 17 13 11 11 10 10 11 11 11 10 9 9 11 14 17 14 5 6 12 11 10 11 11 9 9 10 13 14 14 11 8 8 8 8 8 8 9 9 9 9 8 7 7 7 8 8 9 11 15 19 19 16 15 13 12 11 11 12 11 10 8 9 11 12 11 12 14 15 11 6 5 8 11 13 10 7 6 7 7 7 8 10 11 11 nan
nan 15 13 11 11 10 10 11 11 10 10 9 8 9 12 13 12 9 10 11 11 11 12 12 10 9 10 12 13 12 10 9 9 9 9 9 10 10 9 9 8 7 5 4 5 6 5 3 4 7 14 22 23 19 14 12 10 10 10 11 10 10 10 11 13 12 13 13 12 10 8 6 8 11 12 12 9 8 7 8 8 7 9 11 11 nan
nan nan nan nan nan nan nan nan nan nan nan nan nan nan nan nan nan nan nan nan nan nan nan nan nan nan nan nan nan nan nan nan nan nan nan nan nan nan nan nan nan nan nan nan nan nan nan nan nan nan nan nan nan nan nan nan nan nan nan nan nan nan nan nan nan nan nan nan nan nan nan nan nan nan nan nan nan nan nan nan nan nan nan nan nan nan
CAPE
nan nan nan nan nan nan nan nan nan nan nan nan nan nan nan nan nan nan nan nan nan nan nan nan nan nan nan nan nan nan nan nan nan nan nan nan nan nan nan nan nan nan nan nan nan nan nan nan nan 0 1 1 2 2 5 7 7 2 9 33 33 87 145 204 204 273 299 281 219 219 120 34 2 2 2 2 2 2 2 4 4 4 0 nan nan nan
nan nan nan nan nan nan nan nan nan nan nan nan nan nan nan nan nan nan nan nan nan nan nan nan nan nan nan nan nan nan nan nan nan nan nan nan nan nan nan nan nan nan nan nan nan nan nan 0 0 1 1 0 3 3 5 8 8 8 8 16 16 72 114 162 162 243 232 232 122 122 36 2 1 1 1 3 4 4 4 6 6 4 1 nan nan nan
nan nan nan nan nan nan nan nan nan nan nan nan nan nan nan nan nan nan nan nan nan nan nan nan nan nan nan nan nan nan nan 0 nan nan nan nan nan nan nan nan nan nan nan nan nan nan nan nan nan nan nan nan 1 1 3 3 3 5 5 5 5 10 25 66 66 83 68 36 3 3 nan 0 0 0 2 6 9 9 9 7 7 4 1 nan nan nan
nan nan nan nan nan nan nan nan nan nan nan nan nan nan nan nan nan nan nan nan nan nan nan nan nan nan nan nan nan nan nan 1 0 0 nan nan nan nan nan nan nan nan nan nan nan nan nan nan nan nan nan 0 0 0 0 0 0 0 0 nan nan 0 0 nan nan nan nan nan nan nan nan 1 1 1 4 7 10 10 8 6 6 3 0 nan nan nan
nan nan nan nan nan nan nan nan nan nan nan nan nan nan nan nan nan nan nan nan nan nan nan nan nan nan nan nan nan nan nan 1 1 1 nan 0 0 0 nan nan nan nan nan nan nan nan nan nan nan nan nan 1 0 0 nan nan nan nan nan nan nan nan nan nan nan 0 0 0 0 0 2 2 4 4 6 8 8 8 7 4 4 2 nan nan nan nan
nan nan nan nan nan nan nan nan nan nan nan nan nan nan nan nan nan nan nan nan nan nan nan nan nan nan nan nan nan nan nan 1 0 0 nan 2 4 4 2 0 0 nan nan nan nan nan nan nan nan nan 0 1 0 0 nan nan nan nan nan nan nan nan nan nan nan nan nan 0 0 0 1 2 3 3 4 6 6 6 4 2 2 0 nan nan nan nan
nan nan nan nan nan nan nan nan nan nan nan nan nan nan nan nan nan nan nan nan nan nan nan nan nan nan nan nan nan nan nan 1 0 0 nan 2 7 7 4 2 2 nan nan nan nan nan nan nan nan nan 0 2 1 1 nan nan nan nan nan nan nan nan nan nan nan nan nan nan 0 0 1 1 2 2 3 3 3 3 1 0 0 nan nan nan nan nan
nan nan nan nan nan nan nan nan nan nan nan nan nan nan nan nan nan nan nan nan nan nan nan nan nan nan nan nan nan nan nan nan 0 0 0 2 5 5 3 3 3 1 nan nan nan nan nan nan nan 0 2 3 1 1 0 nan nan nan nan nan nan nan nan nan nan nan nan nan nan nan nan nan nan nan nan nan nan nan nan nan nan nan nan nan nan nan
nan nan nan nan nan nan nan nan nan nan nan nan nan nan nan nan nan nan nan nan nan nan nan nan nan nan nan nan nan nan nan nan nan nan 0 1 2 2 3 5 5 2 nan nan nan nan nan 0 0 1 2 1 0 0 nan nan nan nan nan nan nan nan nan nan nan nan nan nan nan nan nan nan nan nan nan nan nan nan nan nan nan nan nan nan nan nan
nan nan nan nan nan nan nan nan nan nan nan nan nan nan nan nan nan nan nan nan nan nan nan nan nan nan nan nan nan nan nan 0 2 2 3 0 3 3 0 nan nan 1 nan nan nan nan nan 1 1 2 1 0 nan nan nan nan nan nan nan nan nan nan nan nan nan nan nan nan nan nan nan nan nan nan nan nan nan nan nan nan nan nan nan nan nan nan
nan nan nan nan nan nan nan nan nan nan nan nan nan nan nan nan nan nan nan nan nan nan nan nan nan nan nan nan nan nan nan nan nan nan 3 1 nan nan nan nan nan nan nan nan nan nan nan 0 0 0 nan nan nan nan nan nan nan nan nan nan nan nan nan nan nan nan nan nan nan nan nan nan nan nan nan nan nan nan nan nan nan nan nan nan nan nan
nan nan nan nan nan nan nan nan nan nan nan nan nan nan nan nan nan nan nan nan nan nan nan nan nan nan nan nan nan nan nan nan nan nan nan nan 0 0 nan nan nan nan nan nan nan nan nan nan nan nan nan nan nan nan nan nan nan nan nan nan nan nan nan nan nan nan nan nan nan nan nan nan nan nan nan nan nan nan nan nan nan nan nan nan nan nan
nan nan nan nan nan nan nan nan nan nan nan nan nan nan nan nan nan nan nan nan nan nan nan nan nan nan nan nan nan nan nan nan nan nan nan nan nan nan nan nan nan nan nan nan nan nan nan nan nan nan nan nan nan nan nan nan nan nan nan 0 0 0 0 0 0 0 0 nan nan nan nan nan nan nan nan nan nan nan nan nan nan nan nan nan nan nan
nan nan nan nan nan nan nan nan nan nan nan nan nan nan nan nan nan nan nan nan nan nan nan nan nan nan nan nan nan nan nan nan nan nan nan nan nan nan nan nan nan nan nan nan nan nan nan nan nan nan nan nan nan nan nan 0 0 0 0 0 0 0 0 0 0 0 0 nan nan nan nan nan nan nan nan nan nan nan nan nan nan nan nan nan nan nan
nan nan nan nan nan nan nan nan nan nan nan nan nan nan nan nan nan nan nan nan nan nan nan nan nan nan nan nan nan nan nan nan nan nan nan nan nan nan nan nan nan nan nan nan nan nan nan nan nan nan nan nan nan nan nan 0 0 1 1 1 1 0 0 0 0 nan nan nan nan nan nan nan nan nan nan nan nan nan nan nan nan nan nan nan nan nan
nan nan nan nan nan nan nan nan nan nan nan nan nan nan nan nan nan nan nan nan nan nan nan nan nan nan nan nan nan nan nan nan nan nan nan nan nan nan nan nan nan nan nan nan nan nan nan nan nan nan nan nan nan nan nan 1 1 1 1 0 0 0 nan nan nan nan nan nan nan nan nan nan nan nan nan nan nan nan nan nan nan nan nan nan nan nan
nan nan nan nan nan nan nan nan nan nan nan nan nan nan nan nan nan nan nan nan nan nan nan nan nan nan nan nan nan nan nan nan nan nan nan nan nan nan nan nan nan nan nan nan nan nan nan nan nan nan nan 0 0 0 0 1 1 1 0 0 0 nan nan nan nan nan nan nan nan nan nan nan nan nan nan nan nan nan nan nan nan nan nan nan nan nan
nan nan nan nan nan nan nan nan nan nan nan nan nan nan nan nan nan nan nan nan nan nan nan nan nan nan nan nan nan nan nan nan nan nan nan nan nan nan nan nan nan nan nan nan nan nan nan nan nan nan nan 0 0 0 1 1 1 0 nan nan nan nan nan nan nan nan nan nan nan nan nan nan nan nan nan nan nan nan nan nan nan nan nan nan nan nan
nan nan nan nan nan nan nan nan nan nan nan nan nan nan nan nan nan nan nan nan nan nan nan nan nan nan nan nan nan nan nan nan nan nan nan nan nan nan nan nan nan nan nan nan nan nan nan nan nan nan 0 0 1 1 1 0 0 nan nan nan nan nan nan nan nan nan nan nan nan nan nan nan nan nan nan nan nan nan nan nan nan nan nan nan nan nan
0 nan nan nan nan nan nan nan nan nan nan nan nan nan nan nan nan nan nan nan nan nan nan nan nan nan nan nan nan nan nan nan nan nan nan nan nan nan nan nan nan nan nan nan nan nan nan nan nan nan 0 1 1 1 1 0 0 nan nan nan nan nan nan nan nan nan nan nan nan nan nan nan nan nan nan nan nan nan nan nan nan nan nan nan nan nan
2 0 nan nan nan nan nan nan nan nan nan nan nan nan nan nan nan nan nan nan nan nan nan nan nan nan nan nan nan nan nan nan nan nan nan nan nan nan nan nan nan nan nan nan nan nan nan nan nan nan 0 2 2 2 1 nan nan nan nan nan nan nan nan nan nan nan nan nan nan nan nan nan nan nan nan nan nan nan nan nan nan nan nan nan nan nan
12 2 nan nan nan nan nan nan nan nan nan nan nan nan nan nan nan nan nan nan nan nan nan nan nan nan nan nan nan nan nan nan nan nan nan nan nan nan nan nan nan nan nan nan nan nan nan nan nan nan 1 4 2 2 0 nan nan nan nan nan nan nan nan nan nan nan nan nan nan nan nan nan nan nan nan nan nan nan nan nan nan nan nan nan nan 0
27 10 nan nan nan nan nan nan nan nan nan nan nan nan nan nan nan nan nan nan nan nan nan nan nan nan nan nan nan nan nan nan nan nan nan nan nan nan nan nan nan nan nan nan nan nan nan nan nan nan 2 4 2 2 0 nan nan nan nan nan nan nan nan nan nan nan nan nan nan nan nan nan nan nan nan nan nan nan nan nan nan nan nan 0 0 0
41 25 1 nan nan nan nan nan nan nan nan nan nan nan nan nan nan nan nan nan nan nan nan nan nan nan nan nan nan nan nan nan nan nan nan nan nan nan nan nan nan nan nan nan nan nan nan nan nan nan 0 4 2 2 0 nan nan nan nan nan nan nan nan nan nan nan nan nan nan nan nan nan nan nan nan nan nan nan nan nan nan nan nan 0 0 1
36 35 15 nan nan nan nan nan nan nan nan nan nan nan nan nan nan nan nan nan nan nan nan nan nan nan nan nan nan nan nan nan nan nan nan nan nan nan nan nan nan nan nan nan nan nan nan nan nan nan nan 2 3 3 1 nan nan nan nan nan nan nan nan nan nan nan nan nan nan nan nan nan nan nan nan nan nan nan nan nan nan nan nan 0 0 1
23 30 26 8 8 2 nan nan nan nan nan nan nan nan nan nan nan nan nan nan nan nan nan nan nan nan nan nan nan nan nan nan nan nan nan nan nan nan nan nan nan nan nan nan nan nan nan nan nan nan nan 0 5 5 2 0 0 nan nan nan nan nan nan nan nan nan nan nan nan nan nan nan nan nan nan nan nan nan nan nan nan nan nan nan nan 1
12 19 34 34 34 20 3 0 nan nan nan nan nan nan nan nan nan nan nan nan nan nan nan nan nan nan nan nan nan nan nan nan nan nan nan nan nan nan nan nan nan nan nan nan nan nan nan nan nan nan nan nan 6 6 5 3 3 1 1 1 1 1 0 0 0 nan nan nan nan nan nan 0 0 0 0 0 0 0 nan nan nan nan nan nan nan nan
8 10 21 34 34 30 17 4 0 0 nan nan nan nan nan nan nan nan nan nan nan nan nan nan nan nan nan nan nan nan nan nan nan nan nan nan nan nan nan nan nan nan nan nan nan nan nan nan nan nan nan nan nan nan 9 4 4 3 2 2 2 3 2 1 1 0 nan nan nan nan nan 0 0 0 2 2 1 1 1 0 0 nan nan nan nan nan
4 7 13 27 27 31 26 16 5 5 2 1 2 2 nan nan nan nan nan nan nan nan nan nan nan nan nan nan nan nan nan nan nan nan nan nan nan nan nan nan nan nan nan nan nan nan nan nan nan nan nan nan nan nan 6 9 9 5 5 4 4 5 5 3 3 2 1 0 nan nan 0 0 2 2 3 4 3 3 3 3 3 1 nan nan nan nan
2 0 3 15 15 24 27 21 7 7 7 3 3 3 0 nan nan nan nan nan nan nan nan nan nan nan nan nan nan nan nan nan nan nan nan nan nan nan nan nan nan nan nan nan nan nan nan nan nan nan nan nan nan nan nan nan nan 5 6 8 8 8 7 6 6 3 2 1 0 0 0 2 4 4 5 6 6 6 7 8 8 nan nan nan nan nan
nan nan 1 4 4 11 14 2 4 4 5 8 2 2 nan nan nan nan nan nan nan nan nan nan nan nan nan nan nan nan nan nan nan nan nan nan nan nan nan nan nan nan nan nan nan nan nan nan nan nan nan nan nan nan nan nan nan nan nan 2 2 10 12 7 7 5 4 2 1 1 1 3 6 6 7 8 8 8 8 7 7 nan nan nan nan nan
nan nan nan nan nan nan nan nan nan nan nan nan nan nan nan nan nan nan nan nan nan nan nan nan nan nan nan nan nan nan nan nan nan nan nan nan nan nan nan nan nan nan nan nan nan nan nan nan nan nan nan nan nan nan nan nan nan nan nan nan nan nan 5 10 10 7 5 4 3 3 3 6 9 9 12 15 15 15 15 12 12 nan nan nan nan nan
nan nan nan nan nan nan nan nan nan nan nan nan nan nan nan nan nan nan nan nan nan nan nan nan nan nan nan nan nan nan nan nan nan nan nan nan nan nan nan nan nan nan nan nan nan nan nan nan nan nan nan nan nan nan nan nan nan nan nan nan nan nan nan 6 6 1 3 3 0 0 5 6 12 12 14 18 18 18 18 13 13 nan nan nan nan nan
nan nan nan nan nan nan nan nan nan nan nan nan nan nan nan nan nan nan nan nan nan nan nan nan nan nan nan nan nan nan nan nan nan nan nan nan nan nan nan nan nan nan nan nan nan nan nan nan nan nan nan nan nan nan nan nan nan nan nan nan nan nan nan nan nan nan nan nan nan nan nan 3 16 16 17 19 19 19 18 15 15 1 nan nan nan nan
2 0 nan nan nan nan nan nan nan nan nan nan nan nan nan nan nan nan nan nan nan nan nan nan nan nan nan nan nan nan nan nan nan nan nan nan nan nan nan nan nan nan nan nan nan nan nan nan nan nan nan nan nan nan nan nan nan nan nan nan nan nan nan nan nan nan nan nan nan nan nan nan 0 0 8 15 19 19 20 17 17 6 nan nan nan nan
6 0 nan nan nan nan nan nan nan nan nan nan nan nan nan nan nan nan nan nan nan nan nan nan nan nan nan nan nan nan nan nan nan nan nan nan nan nan nan nan nan nan nan nan nan nan nan nan nan nan nan nan nan nan nan nan nan nan nan nan nan nan nan nan nan nan nan nan nan nan nan nan nan nan nan 15 18 18 18 19 19 11 2 nan nan nan
24 2 nan nan nan nan nan nan nan nan nan nan nan nan nan nan nan nan nan nan nan nan nan nan nan nan nan nan nan nan nan nan nan nan nan nan nan nan nan nan nan nan nan nan nan nan nan nan nan nan nan nan nan nan nan nan nan nan nan nan nan nan nan nan nan nan nan nan nan nan nan nan nan nan nan 15 16 16 22 19 19 14 6 0 0 nan
35 4 nan nan nan nan nan nan nan nan nan nan nan nan nan nan nan nan nan nan nan nan nan nan nan nan nan nan nan nan nan nan nan nan nan nan nan nan nan nan nan nan nan nan nan nan nan nan nan nan nan nan nan nan nan nan nan nan nan nan nan nan nan nan nan nan nan nan nan nan nan nan nan nan nan nan nan nan nan nan nan 17 9 3 3 0
37 6 nan nan nan nan nan nan nan nan nan nan nan nan nan nan nan nan nan nan nan nan nan nan nan nan nan nan nan nan nan nan nan nan nan nan nan nan nan nan nan nan nan nan nan nan nan nan nan nan nan nan nan nan nan nan nan nan nan nan nan nan nan nan nan nan nan nan nan nan nan nan nan nan nan nan nan nan nan nan nan 0 nan nan nan nan
55 15 nan nan nan nan nan nan nan nan nan nan nan nan nan nan nan nan nan nan nan nan nan nan nan nan nan nan nan nan nan nan nan nan nan nan nan nan nan nan nan nan nan nan nan nan nan nan nan nan nan nan nan nan nan nan nan nan nan nan nan nan nan nan nan nan nan nan nan nan nan nan nan nan nan nan nan nan nan nan nan nan nan nan nan nan
67 18 nan nan nan nan nan nan nan nan nan nan nan nan nan nan nan nan nan nan nan nan nan nan nan nan nan nan nan nan nan nan nan nan nan nan nan nan nan nan nan nan nan nan nan nan nan nan nan nan nan nan nan nan nan nan nan nan nan nan nan nan nan nan nan nan nan nan nan nan nan nan nan nan nan nan nan nan nan nan nan nan nan nan nan nan
107 34 nan nan nan nan nan nan nan nan nan nan nan nan nan nan nan nan nan nan nan nan nan nan nan nan nan nan nan nan nan nan nan nan nan nan nan nan nan nan nan nan nan nan nan nan nan nan nan nan nan nan nan nan nan nan nan nan nan nan nan nan nan nan nan nan nan nan nan nan nan nan nan nan nan nan nan nan nan nan nan nan nan nan nan nan
98 26 nan nan nan nan nan nan nan nan nan nan nan nan nan nan nan nan nan nan nan nan nan nan nan nan nan nan nan nan nan nan nan nan nan nan nan nan nan nan nan nan nan nan nan nan nan nan nan nan nan nan nan nan nan nan nan nan nan nan nan nan nan nan nan nan nan nan nan nan nan nan nan nan nan nan nan nan nan nan nan nan nan nan nan nan
105 21 nan nan nan nan nan nan nan nan nan nan nan nan nan nan nan nan nan nan nan nan nan nan nan nan nan nan nan nan nan nan nan nan nan nan nan nan nan nan nan nan nan nan nan nan nan nan nan nan nan nan nan nan nan nan nan nan nan nan nan nan nan nan nan nan nan nan nan nan nan nan nan nan nan nan nan nan nan nan nan nan nan nan nan nan
88 8 nan nan nan nan nan nan nan nan nan nan nan nan nan nan nan nan nan nan nan nan nan nan nan nan nan nan nan nan nan nan nan nan nan nan nan nan nan nan nan nan nan nan nan nan nan nan nan nan nan nan nan nan nan nan nan nan nan nan nan nan nan nan nan nan nan nan nan nan nan nan nan nan nan nan nan nan nan nan nan nan nan nan nan nan
86 nan nan nan nan nan nan nan nan nan nan nan nan nan nan nan nan nan nan nan nan nan nan nan nan nan nan nan nan nan nan nan nan nan nan nan nan nan nan nan nan nan nan nan nan nan nan nan nan nan nan nan nan nan nan nan nan nan nan nan nan nan nan nan nan nan nan nan nan nan nan nan nan nan nan nan nan nan nan nan nan nan nan nan nan nan
58 nan nan nan nan nan nan nan nan nan nan nan nan nan nan nan nan nan nan nan nan nan nan nan nan nan nan nan nan nan nan nan nan nan nan nan nan nan nan nan nan nan nan nan nan nan nan nan nan nan nan nan nan nan nan nan nan nan nan nan nan nan nan nan nan nan nan nan nan nan nan nan nan nan nan nan nan nan nan nan nan nan nan nan nan nan
34 nan nan nan nan nan nan nan nan nan nan nan nan nan nan nan nan nan nan nan nan nan nan nan nan nan nan nan nan nan nan nan nan nan nan nan nan nan nan nan nan nan nan nan nan nan nan nan nan nan nan nan nan nan nan nan nan nan nan nan nan nan nan nan nan nan nan nan nan nan nan nan nan nan nan nan nan nan nan nan nan nan nan nan nan nan
nan nan nan nan nan nan nan nan nan nan nan nan nan nan nan nan nan nan nan nan nan nan nan nan nan nan nan nan nan nan nan nan nan nan nan nan nan nan nan nan nan nan nan nan nan nan nan nan nan nan nan nan nan nan nan nan nan nan nan nan nan nan nan nan nan nan nan nan nan nan nan nan nan nan nan nan nan nan nan nan nan nan nan nan nan nan
nan nan nan nan nan nan nan nan nan nan nan nan nan nan nan nan nan nan nan nan nan nan nan nan nan nan nan nan nan nan nan nan nan nan nan nan nan nan nan nan nan nan nan nan nan nan nan nan nan nan nan nan nan nan nan nan nan nan nan nan nan nan nan nan nan nan nan nan nan nan nan nan nan nan nan nan nan nan nan nan nan nan nan nan nan nan
nan nan nan nan nan nan nan nan nan nan nan nan nan nan nan nan nan nan nan nan nan nan nan nan nan nan nan nan nan nan nan nan nan nan nan nan nan nan nan nan nan nan nan nan nan nan nan nan nan nan nan nan nan nan nan nan nan nan nan nan nan nan nan nan nan nan nan nan nan nan nan nan nan nan nan nan nan nan nan nan nan nan nan nan nan nan